,,PA_Meas_PMT16A,,PR_Meas_QMR101_102,,RH_Meas_QMH101,,SR_Meas_QMS101,,TA_Meas_QMH101,,GenWind,,GenWind,
time,status,PA,status,PR,status,RH,status,SR,status,TA,status,DirAvg,status,SpdAvg,
2011-07-20, 00:00:04,VALID,917.575,VALID,0,VALID,93.6613,VALID,0,VALID,20.8699,VALID,8,VALID,0.278906,
2011-07-20, 00:01:04,VALID,917.565,VALID,0,VALID,93.4707,VALID,0,VALID,20.8324,VALID,8,VALID,0.507813,
2011-07-20, 00:02:04,VALID,917.547,VALID,0,VALID,93.7604,VALID,0,VALID,20.8145,VALID,8,VALID,0.50625,
2011-07-20, 00:03:04,VALID,917.517,VALID,0,VALID,94.1034,VALID,0,VALID,20.7739,VALID,8,VALID,0.388672,
2011-07-20, 00:04:04,VALID,917.5,VALID,0,VALID,94.4846,VALID,0,VALID,20.7544,VALID,8,VALID,0.252734,
2011-07-20, 00:05:04,VALID,917.508,VALID,0,VALID,94.8277,VALID,0,VALID,20.7544,VALID,8,VALID,0,
2011-07-20, 00:06:04,VALID,917.535,VALID,0,VALID,95.0945,VALID,0,VALID,20.8129,VALID,8,VALID,0,
2011-07-20, 00:07:04,VALID,917.565,VALID,0,VALID,95.0792,VALID,0,VALID,20.8129,VALID,8,VALID,0,
2011-07-20, 00:08:04,VALID,917.558,VALID,0,VALID,94.7896,VALID,0.107441,VALID,20.7333,VALID,8,VALID,0,
2011-07-20, 00:09:04,VALID,917.586,VALID,0,VALID,94.6295,VALID,0,VALID,20.7365,VALID,8,VALID,0,
2011-07-20, 00:10:04,VALID,917.569,VALID,0,VALID,94.4617,VALID,0,VALID,20.7154,VALID,8,VALID,0,
2011-07-20, 00:11:04,VALID,917.568,VALID,0,VALID,94.6066,VALID,0,VALID,20.7544,VALID,8,VALID,0,
2011-07-20, 00:12:04,VALID,917.557,VALID,0,VALID,94.7514,VALID,0,VALID,20.7934,VALID,8,VALID,0.427734,
2011-07-20, 00:13:04,VALID,917.544,VALID,0,VALID,94.9801,VALID,0,VALID,20.8324,VALID,8,VALID,0.488281,
2011-07-20, 00:14:04,VALID,917.524,VALID,0,VALID,95.0564,VALID,0,VALID,20.8324,VALID,8,VALID,0.479297,
2011-07-20, 00:15:04,VALID,917.502,VALID,0,VALID,95.0259,VALID,0,VALID,20.8129,VALID,8,VALID,0.905078,
2011-07-20, 00:16:04,VALID,917.495,VALID,0,VALID,94.9954,VALID,0,VALID,20.8129,VALID,8,VALID,0.576563,
2011-07-20, 00:17:04,VALID,917.476,VALID,0,VALID,95.003,VALID,0,VALID,20.8145,VALID,8,VALID,0.345313,
2011-07-20, 00:18:04,VALID,917.497,VALID,0,VALID,95.064,VALID,0,VALID,20.8113,VALID,8,VALID,0.199609,
2011-07-20, 00:19:04,VALID,917.497,VALID,0,VALID,95.0183,VALID,0,VALID,20.8714,VALID,8,VALID,0.00117188,
2011-07-20, 00:20:04,VALID,917.499,VALID,0,VALID,94.9039,VALID,0,VALID,20.93,VALID,8,VALID,0.289453,
2011-07-20, 00:21:04,VALID,917.521,VALID,0,VALID,94.7209,VALID,0,VALID,20.93,VALID,8,VALID,0.520703,
2011-07-20, 00:22:04,VALID,917.535,VALID,0,VALID,94.5532,VALID,0,VALID,20.9495,VALID,8,VALID,0.526563,
2011-07-20, 00:23:04,VALID,917.529,VALID,0,VALID,94.3626,VALID,0,VALID,20.9495,VALID,8,VALID,0.328125,
2011-07-20, 00:24:04,VALID,917.566,VALID,0,VALID,94.3474,VALID,0,VALID,20.93,VALID,8,VALID,0.191797,
2011-07-20, 00:25:04,VALID,917.588,VALID,0,VALID,94.4236,VALID,0,VALID,20.93,VALID,8,VALID,0.0554687,
2011-07-20, 00:26:04,VALID,917.591,VALID,0,VALID,94.4922,VALID,0,VALID,20.9706,VALID,8,VALID,0,
2011-07-20, 00:27:04,VALID,917.626,VALID,0,VALID,94.4389,VALID,0,VALID,20.969,VALID,8,VALID,0,
2011-07-20, 00:28:04,VALID,917.591,VALID,0,VALID,94.3474,VALID,0,VALID,20.9511,VALID,8,VALID,0,
2011-07-20, 00:29:04,VALID,917.607,VALID,0,VALID,94.3398,VALID,0,VALID,20.9495,VALID,8,VALID,0,
2011-07-20, 00:30:04,VALID,917.608,VALID,0,VALID,94.2788,VALID,0,VALID,20.93,VALID,8,VALID,0,
2011-07-20, 00:31:04,VALID,917.58,VALID,0,VALID,94.2483,VALID,0,VALID,20.9511,VALID,8,VALID,0,
2011-07-20, 00:32:04,VALID,917.589,VALID,0,VALID,94.073,VALID,0,VALID,20.9316,VALID,8,VALID,0,
2011-07-20, 00:33:04,VALID,917.556,VALID,0,VALID,93.7451,VALID,0,VALID,20.891,VALID,8,VALID,0,
2011-07-20, 00:34:04,VALID,917.583,VALID,0,VALID,93.6155,VALID,0,VALID,20.8714,VALID,8,VALID,0,
2011-07-20, 00:35:04,VALID,917.548,VALID,0,VALID,93.7147,VALID,0,VALID,20.891,VALID,8,VALID,0,
2011-07-20, 00:36:04,VALID,917.539,VALID,0,VALID,93.6308,VALID,0,VALID,20.8714,VALID,8,VALID,0,
2011-07-20, 00:37:04,VALID,917.518,VALID,0,VALID,93.6689,VALID,0,VALID,20.912,VALID,8,VALID,0.409375,
2011-07-20, 00:38:04,VALID,917.485,VALID,0,VALID,93.8366,VALID,0,VALID,20.8714,VALID,8,VALID,1.16523,
2011-07-20, 00:39:04,VALID,917.47,VALID,0,VALID,94.2559,VALID,0,VALID,20.8113,VALID,8,VALID,0.8875,
2011-07-20, 00:40:04,VALID,917.428,VALID,0,VALID,94.5913,VALID,0,VALID,20.8129,VALID,8,VALID,0.699609,
2011-07-20, 00:41:04,VALID,917.43,VALID,0,VALID,94.7362,VALID,0,VALID,20.8324,VALID,8,VALID,0.680859,
2011-07-20, 00:42:04,VALID,917.446,VALID,0,VALID,94.7667,VALID,0,VALID,20.8129,VALID,7,VALID,0.373437,
2011-07-20, 00:43:04,VALID,917.486,VALID,0,VALID,94.8353,VALID,0,VALID,20.8129,VALID,7,VALID,0.236719,
2011-07-20, 00:44:04,VALID,917.505,VALID,0,VALID,94.8963,VALID,0,VALID,20.8113,VALID,7,VALID,0.0480469,
2011-07-20, 00:45:04,VALID,917.528,VALID,0,VALID,94.8124,VALID,0,VALID,20.8324,VALID,338,VALID,0.759766,
2011-07-20, 00:46:04,VALID,917.529,VALID,0,VALID,94.8048,VALID,0,VALID,20.8324,VALID,338,VALID,0.652344,
2011-07-20, 00:47:04,VALID,917.488,VALID,0,VALID,94.6905,VALID,0,VALID,20.7934,VALID,338,VALID,0.821094,
2011-07-20, 00:48:04,VALID,917.507,VALID,0,VALID,94.7209,VALID,0,VALID,20.7739,VALID,338,VALID,0.865625,
2011-07-20, 00:49:04,VALID,917.497,VALID,0,VALID,94.8505,VALID,0,VALID,20.7544,VALID,338,VALID,0.643359,
2011-07-20, 00:50:04,VALID,917.47,VALID,0,VALID,94.9649,VALID,0,VALID,20.7544,VALID,338,VALID,0.36875,
2011-07-20, 00:51:04,VALID,917.432,VALID,0,VALID,95.0411,VALID,0,VALID,20.7544,VALID,338,VALID,0.456641,
2011-07-20, 00:52:04,VALID,917.44,VALID,0,VALID,95.003,VALID,0,VALID,20.7349,VALID,338,VALID,0.786719,
2011-07-20, 00:53:04,VALID,917.395,VALID,0,VALID,95.0869,VALID,0,VALID,20.7349,VALID,338,VALID,0.608203,
2011-07-20, 00:54:04,VALID,917.375,VALID,0,VALID,95.1097,VALID,0,VALID,20.7154,VALID,338,VALID,0.519531,
2011-07-20, 00:55:04,VALID,917.387,VALID,0,VALID,95.1555,VALID,0,VALID,20.7154,VALID,338,VALID,0.265625,
2011-07-20, 00:56:04,VALID,917.397,VALID,0,VALID,95.186,VALID,0,VALID,20.7138,VALID,338,VALID,0.735937,
2011-07-20, 00:57:04,VALID,917.375,VALID,0,VALID,95.186,VALID,0,VALID,20.7349,VALID,339,VALID,0.887891,
2011-07-20, 00:58:04,VALID,917.354,VALID,0,VALID,95.2393,VALID,0,VALID,20.6764,VALID,339,VALID,0.941797,
2011-07-20, 00:59:04,VALID,917.361,VALID,0,VALID,95.3232,VALID,0,VALID,20.6975,VALID,339,VALID,0.812891,
2011-07-20, 01:00:04,VALID,917.378,VALID,0,VALID,95.3613,VALID,0,VALID,20.6374,VALID,339,VALID,0.432422,
2011-07-20, 01:01:04,VALID,917.381,VALID,0,VALID,95.3689,VALID,0,VALID,20.6179,VALID,339,VALID,0.686328,
2011-07-20, 01:02:04,VALID,917.38,VALID,0,VALID,95.4528,VALID,0,VALID,20.6179,VALID,339,VALID,0.469922,
2011-07-20, 01:03:04,VALID,917.378,VALID,0,VALID,95.4604,VALID,0,VALID,20.5789,VALID,339,VALID,0.564844,
2011-07-20, 01:04:04,VALID,917.376,VALID,0,VALID,95.4985,VALID,0,VALID,20.5804,VALID,339,VALID,0.429688,
2011-07-20, 01:05:04,VALID,917.324,VALID,0,VALID,95.4528,VALID,0,VALID,20.5399,VALID,339,VALID,0.735937,
2011-07-20, 01:06:04,VALID,917.328,VALID,0,VALID,95.4757,VALID,0,VALID,20.4813,VALID,339,VALID,0.827344,
2011-07-20, 01:07:04,VALID,917.316,VALID,0,VALID,95.5748,VALID,0,VALID,20.4618,VALID,9,VALID,1.16797,
2011-07-20, 01:08:04,VALID,917.316,VALID,0,VALID,95.6357,VALID,0,VALID,20.4634,VALID,9,VALID,0.474609,
2011-07-20, 01:09:04,VALID,917.336,VALID,0,VALID,95.7272,VALID,0,VALID,20.4228,VALID,9,VALID,0.460547,
2011-07-20, 01:10:04,VALID,917.327,VALID,0,VALID,95.7958,VALID,0,VALID,20.4423,VALID,9,VALID,0.132031,
2011-07-20, 01:11:04,VALID,917.34,VALID,0,VALID,95.9102,VALID,0,VALID,20.4618,VALID,9,VALID,0,
2011-07-20, 01:12:04,VALID,917.358,VALID,0,VALID,95.9102,VALID,0,VALID,20.4829,VALID,9,VALID,0,
2011-07-20, 01:13:04,VALID,917.335,VALID,0,VALID,95.9026,VALID,0,VALID,20.4423,VALID,9,VALID,0.407031,
2011-07-20, 01:14:04,VALID,917.338,VALID,0,VALID,95.9102,VALID,0,VALID,20.4423,VALID,9,VALID,0.479297,
2011-07-20, 01:15:04,VALID,917.327,VALID,0,VALID,95.9407,VALID,0,VALID,20.4439,VALID,9,VALID,0.408594,
2011-07-20, 01:16:04,VALID,917.33,VALID,0,VALID,95.9712,VALID,0,VALID,20.4423,VALID,9,VALID,0.31875,
2011-07-20, 01:17:04,VALID,917.355,VALID,0,VALID,95.9864,VALID,0,VALID,20.4423,VALID,9,VALID,0.226563,
2011-07-20, 01:18:04,VALID,917.332,VALID,0,VALID,95.9941,VALID,0,VALID,20.4228,VALID,9,VALID,0.0242187,
2011-07-20, 01:19:04,VALID,917.296,VALID,0,VALID,95.9788,VALID,0,VALID,20.4439,VALID,9,VALID,0.432031,
2011-07-20, 01:20:04,VALID,917.284,VALID,0,VALID,95.9102,VALID,0,VALID,20.3838,VALID,9,VALID,0.670313,
2011-07-20, 01:21:04,VALID,917.277,VALID,0,VALID,95.9407,VALID,0,VALID,20.3464,VALID,9,VALID,0.744531,
2011-07-20, 01:22:04,VALID,917.282,VALID,0,VALID,96.0245,VALID,0,VALID,20.3253,VALID,9,VALID,0.542188,
2011-07-20, 01:23:04,VALID,917.28,VALID,0,VALID,96.1008,VALID,0,VALID,20.3659,VALID,9,VALID,0.2625,
2011-07-20, 01:24:04,VALID,917.285,VALID,0,VALID,96.1313,VALID,0,VALID,20.3854,VALID,9,VALID,0.35625,
2011-07-20, 01:25:04,VALID,917.289,VALID,0,VALID,96.1084,VALID,0,VALID,20.3854,VALID,9,VALID,0.159375,
2011-07-20, 01:26:04,VALID,917.299,VALID,0,VALID,96.1236,VALID,0,VALID,20.3253,VALID,9,VALID,0.279297,
2011-07-20, 01:27:04,VALID,917.334,VALID,0,VALID,96.1236,VALID,0,VALID,20.3674,VALID,9,VALID,0.105469,
2011-07-20, 01:28:04,VALID,917.36,VALID,0,VALID,96.177,VALID,0,VALID,20.3253,VALID,9,VALID,0.0167969,
2011-07-20, 01:29:04,VALID,917.35,VALID,0,VALID,96.177,VALID,0,VALID,20.3448,VALID,9,VALID,0,
2011-07-20, 01:30:04,VALID,917.337,VALID,0,VALID,96.1923,VALID,0,VALID,20.4049,VALID,9,VALID,0,
2011-07-20, 01:31:04,VALID,917.309,VALID,0,VALID,96.1846,VALID,0,VALID,20.3838,VALID,9,VALID,0.198828,
2011-07-20, 01:32:04,VALID,917.303,VALID,0,VALID,96.1236,VALID,0,VALID,20.3854,VALID,9,VALID,0.164453,
2011-07-20, 01:33:04,VALID,917.337,VALID,0,VALID,96.116,VALID,0,VALID,20.3838,VALID,9,VALID,0,
2011-07-20, 01:34:04,VALID,917.371,VALID,0,VALID,96.0474,VALID,0,VALID,20.3643,VALID,9,VALID,0.228125,
2011-07-20, 01:35:04,VALID,917.349,VALID,0,VALID,96.0093,VALID,0,VALID,20.3659,VALID,9,VALID,0.306641,
2011-07-20, 01:36:04,VALID,917.375,VALID,0,VALID,96.0169,VALID,0,VALID,20.3854,VALID,9,VALID,0.153125,
2011-07-20, 01:37:04,VALID,917.354,VALID,0,VALID,96.0169,VALID,0,VALID,20.4033,VALID,9,VALID,0.0230469,
2011-07-20, 01:38:04,VALID,917.366,VALID,0,VALID,95.9864,VALID,0,VALID,20.4634,VALID,9,VALID,0,
2011-07-20, 01:39:04,VALID,917.311,VALID,0,VALID,95.9026,VALID,0,VALID,20.4618,VALID,9,VALID,0,
2011-07-20, 01:40:04,VALID,917.316,VALID,0,VALID,95.8035,VALID,0,VALID,20.5024,VALID,9,VALID,0.455469,
2011-07-20, 01:41:04,VALID,917.316,VALID,0,VALID,95.6357,VALID,0,VALID,20.5024,VALID,9,VALID,0.598437,
2011-07-20, 01:42:04,VALID,917.278,VALID,0,VALID,95.5519,VALID,0,VALID,20.5009,VALID,9,VALID,0.311328,
2011-07-20, 01:43:04,VALID,917.249,VALID,0,VALID,95.3308,VALID,0,VALID,20.5219,VALID,9,VALID,0.366797,
2011-07-20, 01:44:04,VALID,917.218,VALID,0,VALID,95.0335,VALID,0,VALID,20.4829,VALID,9,VALID,0.421094,
2011-07-20, 01:45:04,VALID,917.177,VALID,0,VALID,94.881,VALID,0,VALID,20.4228,VALID,9,VALID,0.737891,
2011-07-20, 01:46:04,VALID,917.143,VALID,0,VALID,94.9268,VALID,0,VALID,20.4439,VALID,9,VALID,0.773047,
2011-07-20, 01:47:04,VALID,917.124,VALID,0,VALID,94.8887,VALID,0,VALID,20.4049,VALID,9,VALID,0.758203,
2011-07-20, 01:48:04,VALID,917.121,VALID,0,VALID,94.942,VALID,0,VALID,20.3643,VALID,9,VALID,0.951563,
2011-07-20, 01:49:04,VALID,917.144,VALID,0,VALID,94.8963,VALID,0,VALID,20.3643,VALID,9,VALID,0.520703,
2011-07-20, 01:50:04,VALID,917.185,VALID,0,VALID,94.8582,VALID,0,VALID,20.3854,VALID,9,VALID,0.546875,
2011-07-20, 01:51:04,VALID,917.144,VALID,0,VALID,94.8124,VALID,0,VALID,20.3643,VALID,9,VALID,0.203516,
2011-07-20, 01:52:04,VALID,917.152,VALID,0,VALID,94.7362,VALID,0,VALID,20.3854,VALID,9,VALID,0.141406,
2011-07-20, 01:53:04,VALID,917.175,VALID,0,VALID,94.7438,VALID,0,VALID,20.3659,VALID,9,VALID,0.249219,
2011-07-20, 01:54:04,VALID,917.224,VALID,0,VALID,94.7286,VALID,0,VALID,20.3643,VALID,9,VALID,0.212891,
2011-07-20, 01:55:04,VALID,917.208,VALID,0,VALID,94.6142,VALID,0,VALID,20.3448,VALID,9,VALID,0.101563,
2011-07-20, 01:56:04,VALID,917.198,VALID,0,VALID,94.5913,VALID,0,VALID,20.3253,VALID,9,VALID,0.169922,
2011-07-20, 01:57:04,VALID,917.232,VALID,0,VALID,94.5304,VALID,0,VALID,20.3253,VALID,9,VALID,0.195703,
2011-07-20, 01:58:04,VALID,917.211,VALID,0,VALID,94.5837,VALID,0,VALID,20.3269,VALID,9,VALID,0,
2011-07-20, 01:59:04,VALID,917.246,VALID,0,VALID,94.538,VALID,0,VALID,20.3269,VALID,9,VALID,0.0296875,
2011-07-20, 02:00:04,VALID,917.286,VALID,0,VALID,94.4465,VALID,0,VALID,20.3074,VALID,9,VALID,0.305859,
2011-07-20, 02:01:04,VALID,917.257,VALID,0,VALID,94.3855,VALID,0,VALID,20.2879,VALID,8,VALID,0.333203,
2011-07-20, 02:02:04,VALID,917.291,VALID,0,VALID,94.355,VALID,0,VALID,20.2684,VALID,9,VALID,0.342187,
2011-07-20, 02:03:04,VALID,917.282,VALID,0,VALID,94.2559,VALID,0,VALID,20.2098,VALID,9,VALID,0.425391,
2011-07-20, 02:04:04,VALID,917.282,VALID,0,VALID,94.2712,VALID,0,VALID,20.1903,VALID,9,VALID,0.290625,
2011-07-20, 02:05:04,VALID,917.314,VALID,0,VALID,94.294,VALID,0,VALID,20.1513,VALID,9,VALID,0.355469,
2011-07-20, 02:06:04,VALID,917.269,VALID,0,VALID,94.4008,VALID,0,VALID,20.1108,VALID,9,VALID,0,
2011-07-20, 02:07:04,VALID,917.256,VALID,0,VALID,94.0806,VALID,0,VALID,20.0523,VALID,9,VALID,0,
2011-07-20, 02:08:04,VALID,917.241,VALID,0,VALID,93.4478,VALID,0,VALID,19.9353,VALID,9,VALID,0.21875,
2011-07-20, 02:09:04,VALID,917.208,VALID,0,VALID,93.2039,VALID,0,VALID,19.8378,VALID,9,VALID,0.466016,
2011-07-20, 02:10:04,VALID,917.209,VALID,0,VALID,93.6003,VALID,0,VALID,19.7403,VALID,9,VALID,0.640234,
2011-07-20, 02:11:04,VALID,917.149,VALID,0,VALID,94.012,VALID,0,VALID,19.6818,VALID,9,VALID,0.710938,
2011-07-20, 02:12:04,VALID,917.145,VALID,0,VALID,94.3626,VALID,0,VALID,19.6248,VALID,9,VALID,0.675781,
2011-07-20, 02:13:04,VALID,917.122,VALID,0,VALID,94.4922,VALID,0,VALID,19.5273,VALID,9,VALID,0.392578,
2011-07-20, 02:14:04,VALID,917.103,VALID,0,VALID,94.6066,VALID,0,VALID,19.4493,VALID,9,VALID,0.469141,
2011-07-20, 02:15:04,VALID,917.111,VALID,0,VALID,95.003,VALID,0,VALID,19.4478,VALID,9,VALID,0.482422,
2011-07-20, 02:16:04,VALID,917.125,VALID,0,VALID,95.3461,VALID,0,VALID,19.4868,VALID,9,VALID,0.683984,
2011-07-20, 02:17:04,VALID,917.151,VALID,0,VALID,95.7882,VALID,0,VALID,19.6053,VALID,9,VALID,0.851953,
2011-07-20, 02:18:04,VALID,917.132,VALID,0,VALID,95.9331,VALID,0,VALID,19.6248,VALID,9,VALID,0.907031,
2011-07-20, 02:19:04,VALID,917.103,VALID,0,VALID,96.0703,VALID,0,VALID,19.7028,VALID,9,VALID,0.761719,
2011-07-20, 02:20:04,VALID,917.149,VALID,0,VALID,96.0627,VALID,0,VALID,19.6443,VALID,9,VALID,0.642578,
2011-07-20, 02:21:04,VALID,917.143,VALID,0,VALID,95.9941,VALID,0,VALID,19.5648,VALID,9,VALID,0.658203,
2011-07-20, 02:22:04,VALID,917.139,VALID,0,VALID,95.9636,VALID,0,VALID,19.5078,VALID,9,VALID,0.524609,
2011-07-20, 02:23:04,VALID,917.115,VALID,0,VALID,96.0169,VALID,0,VALID,19.4883,VALID,9,VALID,0.778906,
2011-07-20, 02:24:04,VALID,917.099,VALID,0,VALID,96.1313,VALID,0,VALID,19.4883,VALID,9,VALID,0.777344,
2011-07-20, 02:25:04,VALID,917.053,VALID,0,VALID,96.2151,VALID,0,VALID,19.5078,VALID,9,VALID,0.902344,
2011-07-20, 02:26:04,VALID,916.987,VALID,0,VALID,96.299,VALID,0,VALID,19.5468,VALID,9,VALID,1.06797,
2011-07-20, 02:27:04,VALID,916.997,VALID,0,VALID,96.3447,VALID,0,VALID,19.5468,VALID,9,VALID,0.837891,
2011-07-20, 02:28:04,VALID,916.969,VALID,0,VALID,96.3371,VALID,0.107441,VALID,19.5258,VALID,9,VALID,0.612109,
2011-07-20, 02:29:04,VALID,916.974,VALID,0,VALID,96.3981,VALID,0,VALID,19.5273,VALID,9,VALID,0.689062,
2011-07-20, 02:30:04,VALID,916.952,VALID,0,VALID,96.4133,VALID,0,VALID,19.5468,VALID,9,VALID,0.602734,
2011-07-20, 02:31:04,VALID,916.952,VALID,0,VALID,96.4515,VALID,0,VALID,19.5468,VALID,9,VALID,0.616797,
2011-07-20, 02:32:04,VALID,916.948,VALID,0,VALID,96.4362,VALID,0,VALID,19.5078,VALID,9,VALID,0.573828,
2011-07-20, 02:33:04,VALID,916.965,VALID,0,VALID,96.3371,VALID,0,VALID,19.4298,VALID,9,VALID,0.747266,
2011-07-20, 02:34:04,VALID,916.97,VALID,0,VALID,96.3829,VALID,0,VALID,19.3713,VALID,9,VALID,0.619141,
2011-07-20, 02:35:04,VALID,916.961,VALID,0,VALID,96.4591,VALID,0,VALID,19.3713,VALID,9,VALID,0.700391,
2011-07-20, 02:36:04,VALID,916.951,VALID,0,VALID,96.4972,VALID,0,VALID,19.3908,VALID,9,VALID,0.480469,
2011-07-20, 02:37:04,VALID,916.968,VALID,0,VALID,96.5506,VALID,0,VALID,19.4103,VALID,9,VALID,0.878906,
2011-07-20, 02:38:04,VALID,916.974,VALID,0,VALID,96.6192,VALID,0,VALID,19.4493,VALID,9,VALID,0.807031,
2011-07-20, 02:39:04,VALID,916.942,VALID,0,VALID,96.6573,VALID,0,VALID,19.4688,VALID,9,VALID,0.832812,
2011-07-20, 02:40:04,VALID,916.969,VALID,0,VALID,96.703,VALID,0,VALID,19.4883,VALID,9,VALID,0.512891,
2011-07-20, 02:41:04,VALID,916.955,VALID,0,VALID,96.7335,VALID,0,VALID,19.5078,VALID,9,VALID,0.244922,
2011-07-20, 02:42:04,VALID,916.939,VALID,0,VALID,96.7488,VALID,0,VALID,19.5468,VALID,9,VALID,0.476953,
2011-07-20, 02:43:04,VALID,916.93,VALID,0,VALID,96.6878,VALID,0,VALID,19.4883,VALID,9,VALID,0.782812,
2011-07-20, 02:44:04,VALID,916.888,VALID,0,VALID,96.6802,VALID,0,VALID,19.4688,VALID,9,VALID,0.671094,
2011-07-20, 02:45:04,VALID,916.879,VALID,0,VALID,96.7488,VALID,0,VALID,19.4478,VALID,9,VALID,0.408203,
2011-07-20, 02:46:04,VALID,916.879,VALID,0,VALID,96.7716,VALID,0,VALID,19.4883,VALID,9,VALID,0.256641,
2011-07-20, 02:47:04,VALID,916.869,VALID,0,VALID,96.8098,VALID,0,VALID,19.4868,VALID,9,VALID,0.483984,
2011-07-20, 02:48:04,VALID,916.858,VALID,0,VALID,96.8479,VALID,0,VALID,19.5468,VALID,9,VALID,0.607813,
2011-07-20, 02:49:04,VALID,916.857,VALID,0,VALID,96.8479,VALID,0,VALID,19.5468,VALID,9,VALID,0.46875,
2011-07-20, 02:50:05,VALID,916.841,VALID,0,VALID,96.8936,VALID,0,VALID,19.5858,VALID,9,VALID,0.800391,
2011-07-20, 02:51:05,VALID,916.853,VALID,0,VALID,96.9317,VALID,0,VALID,19.6053,VALID,9,VALID,0.149219,
2011-07-20, 02:52:05,VALID,916.869,VALID,0,VALID,96.9394,VALID,0,VALID,19.6443,VALID,9,VALID,0.546094,
2011-07-20, 02:53:05,VALID,916.868,VALID,0,VALID,96.947,VALID,0,VALID,19.6833,VALID,9,VALID,0.0121094,
2011-07-20, 02:54:05,VALID,916.856,VALID,0,VALID,96.9622,VALID,0,VALID,19.6833,VALID,9,VALID,0.680078,
2011-07-20, 02:55:05,VALID,916.863,VALID,0,VALID,96.9165,VALID,0,VALID,19.6623,VALID,9,VALID,0.678516,
2011-07-20, 02:56:05,VALID,916.863,VALID,0,VALID,96.947,VALID,0,VALID,19.6833,VALID,9,VALID,0.319141,
2011-07-20, 02:57:05,VALID,916.829,VALID,0,VALID,96.947,VALID,0,VALID,19.7013,VALID,9,VALID,0.413672,
2011-07-20, 02:58:05,VALID,916.831,VALID,0,VALID,96.9622,VALID,0,VALID,19.7013,VALID,9,VALID,0.260156,
2011-07-20, 02:59:05,VALID,916.777,VALID,0,VALID,96.9775,VALID,0,VALID,19.7418,VALID,9,VALID,0.267969,
2011-07-20, 03:00:05,VALID,916.722,VALID,0,VALID,96.9012,VALID,0,VALID,19.7253,VALID,9,VALID,0.645312,
2011-07-20, 03:01:05,VALID,916.705,VALID,0,VALID,96.8784,VALID,0,VALID,19.6023,VALID,9,VALID,0.935156,
2011-07-20, 03:02:05,VALID,916.652,VALID,0,VALID,96.9012,VALID,0,VALID,19.5633,VALID,9,VALID,0.642578,
2011-07-20, 03:03:05,VALID,916.64,VALID,0,VALID,96.8936,VALID,0,VALID,19.5663,VALID,9,VALID,0.603125,
2011-07-20, 03:04:05,VALID,916.664,VALID,0,VALID,96.947,VALID,0,VALID,19.5453,VALID,9,VALID,0.622656,
2011-07-20, 03:05:05,VALID,916.678,VALID,0,VALID,96.9622,VALID,0,VALID,19.5663,VALID,9,VALID,0.332422,
2011-07-20, 03:06:05,VALID,916.724,VALID,0,VALID,96.9775,VALID,0,VALID,19.5243,VALID,9,VALID,0.0980469,
2011-07-20, 03:07:05,VALID,916.734,VALID,0,VALID,97.008,VALID,0,VALID,19.5243,VALID,9,VALID,0.0515625,
2011-07-20, 03:08:05,VALID,916.722,VALID,0,VALID,97.0461,VALID,0,VALID,19.5843,VALID,9,VALID,0.0210938,
2011-07-20, 03:09:05,VALID,916.755,VALID,0,VALID,97.0537,VALID,0,VALID,19.6473,VALID,9,VALID,0,
2011-07-20, 03:10:05,VALID,916.776,VALID,0,VALID,97.0613,VALID,0,VALID,19.6443,VALID,9,VALID,0.308203,
2011-07-20, 03:11:05,VALID,916.8,VALID,0,VALID,97.0461,VALID,0,VALID,19.6443,VALID,9,VALID,0.335938,
2011-07-20, 03:12:05,VALID,916.818,VALID,0,VALID,97.0461,VALID,0,VALID,19.6443,VALID,9,VALID,0.496875,
2011-07-20, 03:13:05,VALID,916.783,VALID,0,VALID,97.069,VALID,0,VALID,19.7283,VALID,9,VALID,0.300391,
2011-07-20, 03:14:05,VALID,916.827,VALID,0,VALID,97.0461,VALID,0,VALID,19.6638,VALID,9,VALID,0.684375,
2011-07-20, 03:15:05,VALID,916.829,VALID,0,VALID,97.069,VALID,0,VALID,19.6638,VALID,9,VALID,0.441406,
2011-07-20, 03:16:05,VALID,916.872,VALID,0,VALID,97.0842,VALID,0,VALID,19.7268,VALID,9,VALID,0.297656,
2011-07-20, 03:17:05,VALID,916.896,VALID,0,VALID,97.0994,VALID,0,VALID,19.6638,VALID,9,VALID,0.661328,
2011-07-20, 03:18:05,VALID,916.887,VALID,0,VALID,97.0918,VALID,0,VALID,19.6818,VALID,9,VALID,0.832031,
2011-07-20, 03:19:05,VALID,916.881,VALID,0,VALID,97.1376,VALID,0,VALID,19.7028,VALID,9,VALID,0.704687,
2011-07-20, 03:20:05,VALID,916.867,VALID,0,VALID,97.1147,VALID,0,VALID,19.7013,VALID,89,VALID,0.523828,
2011-07-20, 03:21:05,VALID,916.806,VALID,0,VALID,97.1528,VALID,0,VALID,19.7418,VALID,89,VALID,0.706641,
2011-07-20, 03:22:05,VALID,916.824,VALID,0,VALID,97.1604,VALID,0,VALID,19.7808,VALID,89,VALID,0.346484,
2011-07-20, 03:23:05,VALID,916.811,VALID,0,VALID,97.1452,VALID,0,VALID,19.7808,VALID,89,VALID,0.373828,
2011-07-20, 03:24:05,VALID,916.82,VALID,0,VALID,97.1376,VALID,0,VALID,19.7793,VALID,90,VALID,1.08438,
2011-07-20, 03:25:05,VALID,916.769,VALID,0,VALID,97.1376,VALID,0,VALID,19.8003,VALID,90,VALID,0.875,
2011-07-20, 03:26:05,VALID,916.816,VALID,0,VALID,97.1376,VALID,0,VALID,19.8003,VALID,90,VALID,0.309766,
2011-07-20, 03:27:05,VALID,916.815,VALID,0,VALID,97.1452,VALID,0,VALID,19.8393,VALID,90,VALID,0.428125,
2011-07-20, 03:28:05,VALID,916.832,VALID,0,VALID,97.1528,VALID,0,VALID,19.8183,VALID,90,VALID,0.765234,
2011-07-20, 03:29:05,VALID,916.839,VALID,0,VALID,97.1376,VALID,0,VALID,19.8183,VALID,90,VALID,0.355078,
2011-07-20, 03:30:05,VALID,916.875,VALID,0,VALID,97.1452,VALID,0,VALID,19.8393,VALID,90,VALID,0.405859,
2011-07-20, 03:31:05,VALID,916.901,VALID,0,VALID,97.1147,VALID,0,VALID,19.8198,VALID,90,VALID,0.678125,
2011-07-20, 03:32:05,VALID,916.914,VALID,0,VALID,97.1147,VALID,0,VALID,19.8003,VALID,90,VALID,0.165625,
2011-07-20, 03:33:05,VALID,916.907,VALID,0,VALID,97.0994,VALID,0,VALID,19.7823,VALID,128,VALID,0.449609,
2011-07-20, 03:34:05,VALID,916.861,VALID,0,VALID,97.1071,VALID,0,VALID,19.7418,VALID,117,VALID,0.660937,
2011-07-20, 03:35:05,VALID,916.842,VALID,0,VALID,97.1147,VALID,0,VALID,19.7433,VALID,112,VALID,0.794531,
2011-07-20, 03:36:05,VALID,916.842,VALID,0,VALID,97.1071,VALID,0,VALID,19.7223,VALID,95,VALID,1.21445,
2011-07-20, 03:37:05,VALID,916.83,VALID,0,VALID,97.1299,VALID,0,VALID,19.7223,VALID,134,VALID,0.761328,
2011-07-20, 03:38:05,VALID,916.828,VALID,0,VALID,97.1681,VALID,0,VALID,19.7208,VALID,129,VALID,0.627734,
2011-07-20, 03:39:05,VALID,916.879,VALID,0,VALID,97.1223,VALID,0,VALID,19.6833,VALID,121,VALID,1.13867,
2011-07-20, 03:40:05,VALID,916.872,VALID,0,VALID,97.1147,VALID,0,VALID,19.7043,VALID,125,VALID,1.17656,
2011-07-20, 03:41:05,VALID,916.913,VALID,0,VALID,97.1299,VALID,0,VALID,19.6833,VALID,133,VALID,0.878516,
2011-07-20, 03:42:05,VALID,916.942,VALID,0,VALID,97.1604,VALID,0,VALID,19.6623,VALID,129,VALID,0.406641,
2011-07-20, 03:43:05,VALID,916.947,VALID,0,VALID,97.1452,VALID,0,VALID,19.6623,VALID,129,VALID,0.321484,
2011-07-20, 03:44:05,VALID,916.917,VALID,0,VALID,97.1681,VALID,0,VALID,19.6833,VALID,129,VALID,0.431641,
2011-07-20, 03:45:05,VALID,916.94,VALID,0,VALID,97.1452,VALID,0,VALID,19.7028,VALID,129,VALID,0.441016,
2011-07-20, 03:46:05,VALID,916.922,VALID,0,VALID,97.1376,VALID,0,VALID,19.6833,VALID,107,VALID,0.619531,
2011-07-20, 03:47:05,VALID,916.924,VALID,0,VALID,97.1833,VALID,0,VALID,19.7028,VALID,107,VALID,0.741797,
2011-07-20, 03:48:05,VALID,916.917,VALID,0,VALID,97.1681,VALID,0,VALID,19.6818,VALID,107,VALID,1.06797,
2011-07-20, 03:49:05,VALID,916.94,VALID,0,VALID,97.1376,VALID,0,VALID,19.7043,VALID,80,VALID,1.08711,